Time,TemperatureF,DewpointF,PressureIn,WindDirection,WindDirectionDegrees,WindSpeedMPH,WindSpeedGustMPH,Humidity,HourlyPrecipIn,Conditions,Clouds,dailyrainin,SolarRadiationWatts/m^2,SoftwareType,DateUTC
2013-02-23 00:00:00,44.4,40.5,29.97,NE,37,0.0,0.0,86,0.00,,,0.00,0,Wunderground v.1.15,2013-02-23 05:00:00,
2013-02-23 00:02:00,44.4,40.5,29.96,NE,37,1.0,1.0,86,0.00,,,0.00,0,Wunderground v.1.15,2013-02-23 05:02:00,
2013-02-23 00:04:00,44.4,40.5,29.97,NE,37,0.0,1.0,86,0.00,,,0.00,0,Wunderground v.1.15,2013-02-23 05:04:00,
2013-02-23 00:10:00,44.4,40.5,29.97,NE,37,0.0,0.0,86,0.00,,,0.00,0,Wunderground v.1.15,2013-02-23 05:10:00,
2013-02-23 00:15:00,44.4,40.5,29.96,NE,37,1.0,1.0,86,0.00,,,0.00,0,Wunderground v.1.15,2013-02-23 05:15:00,
2013-02-23 00:17:00,44.4,40.5,29.97,NE,38,0.0,1.0,86,0.00,,,0.00,0,Wunderground v.1.15,2013-02-23 05:17:00,
2013-02-23 00:23:00,44.3,40.4,29.95,NE,37,0.0,1.0,86,0.00,,,0.00,0,Wunderground v.1.15,2013-02-23 05:23:00,
2013-02-23 00:28:00,44.2,40.3,29.95,NE,37,0.0,1.0,86,0.00,,,0.00,0,Wunderground v.1.15,2013-02-23 05:28:00,
2013-02-23 00:33:00,44.1,40.5,29.95,NE,37,1.0,1.0,87,0.00,,,0.00,0,Wunderground v.1.15,2013-02-23 05:33:00,
2013-02-23 00:39:00,44.1,40.2,29.96,NE,37,1.0,1.0,86,0.00,,,0.00,0,Wunderground v.1.15,2013-02-23 05:39:00,
2013-02-23 00:45:00,44.0,40.1,29.95,NE,37,0.0,0.0,86,0.00,,,0.00,0,Wunderground v.1.15,2013-02-23 05:45:00,
2013-02-23 00:51:00,43.9,40.3,29.95,NE,37,0.0,0.0,87,0.00,,,0.00,0,Wunderground v.1.15,2013-02-23 05:51:00,
2013-02-23 00:56:00,43.9,40.3,29.95,NE,37,0.0,1.0,87,0.00,,,0.00,0,Wunderground v.1.15,2013-02-23 05:56:00,
2013-02-23 01:02:00,44.0,40.1,29.95,NE,37,0.0,0.0,86,0.00,,,0.00,0,Wunderground v.1.15,2013-02-23 06:02:00,
2013-02-23 01:07:00,44.0,40.1,29.95,NE,37,0.0,0.0,86,0.00,,,0.00,0,Wunderground v.1.15,2013-02-23 06:07:00,
2013-02-23 01:12:00,43.9,40.3,29.95,NE,37,1.0,1.0,87,0.00,,,0.00,0,Wunderground v.1.15,2013-02-23 06:12:00,
2013-02-23 01:19:00,43.5,40.2,29.95,NE,37,0.0,1.0,88,0.00,,,0.00,0,Wunderground v.1.15,2013-02-23 06:19:00,
2013-02-23 01:25:00,43.5,40.5,29.95,NE,37,0.0,0.0,89,0.00,,,0.00,0,Wunderground v.1.15,2013-02-23 06:25:00,
2013-02-23 01:30:00,43.5,40.5,29.96,NE,37,1.0,1.0,89,0.00,,,0.00,0,Wunderground v.1.15,2013-02-23 06:30:00,
2013-02-23 01:35:00,43.5,40.5,29.95,NE,37,1.0,2.0,89,0.00,,,0.00,0,Wunderground v.1.15,2013-02-23 06:35:00,
2013-02-23 01:41:00,43.5,40.5,29.94,NE,37,0.0,0.0,89,0.00,,,0.00,0,Wunderground v.1.15,2013-02-23 06:41:00,
2013-02-23 01:47:00,43.5,40.5,29.95,NE,37,0.0,0.0,89,0.00,,,0.00,0,Wunderground v.1.15,2013-02-23 06:47:00,
2013-02-23 01:52:00,43.6,40.6,29.95,NE,37,0.0,0.0,89,0.00,,,0.00,0,Wunderground v.1.15,2013-02-23 06:52:00,
2013-02-23 01:57:00,43.6,40.6,29.95,NE,37,0.0,0.0,89,0.00,,,0.00,0,Wunderground v.1.15,2013-02-23 06:57:00,
2013-02-23 02:04:00,43.7,40.4,29.95,NE,37,0.0,0.0,88,0.00,,,0.00,0,Wunderground v.1.15,2013-02-23 07:04:00,
2013-02-23 02:09:00,43.7,40.7,29.95,NE,37,0.0,0.0,89,0.00,,,0.00,0,Wunderground v.1.15,2013-02-23 07:09:00,
2013-02-23 02:14:00,43.8,40.5,29.96,NE,37,0.0,0.0,88,0.00,,,0.00,0,Wunderground v.1.15,2013-02-23 07:14:00,
2013-02-23 02:19:00,43.8,40.8,29.96,NE,37,0.0,2.0,89,0.00,,,0.00,0,Wunderground v.1.15,2013-02-23 07:19:00,
2013-02-23 02:24:00,43.8,40.8,29.95,NE,37,0.0,0.0,89,0.00,,,0.00,0,Wunderground v.1.15,2013-02-23 07:24:00,
2013-02-23 02:29:00,43.8,40.5,29.95,NE,37,0.0,2.0,88,0.00,,,0.00,0,Wunderground v.1.15,2013-02-23 07:29:00,
2013-02-23 02:34:00,43.9,40.6,29.94,NE,37,0.0,1.0,88,0.00,,,0.00,0,Wunderground v.1.15,2013-02-23 07:34:00,
2013-02-23 02:39:00,43.9,40.6,29.94,NE,37,0.0,0.0,88,0.00,,,0.00,0,Wunderground v.1.15,2013-02-23 07:39:00,
2013-02-23 02:44:00,43.8,40.5,29.93,NE,37,0.0,0.0,88,0.00,,,0.00,0,Wunderground v.1.15,2013-02-23 07:44:00,
2013-02-23 02:50:00,43.8,40.5,29.94,NE,37,0.0,0.0,88,0.00,,,0.00,0,Wunderground v.1.15,2013-02-23 07:50:00,
2013-02-23 02:55:00,43.8,40.5,29.94,NE,37,0.0,0.0,88,0.00,,,0.00,0,Wunderground v.1.15,2013-02-23 07:55:00,
2013-02-23 03:00:00,43.8,40.2,29.94,NE,37,0.0,0.0,87,0.00,,,0.00,0,Wunderground v.1.15,2013-02-23 08:00:00,
2013-02-23 03:06:00,43.9,40.6,29.94,NE,37,0.0,0.0,88,0.00,,,0.00,0,Wunderground v.1.15,2013-02-23 08:06:00,
2013-02-23 03:11:00,43.9,40.6,29.94,NE,38,2.0,2.0,88,0.00,,,0.00,0,Wunderground v.1.15,2013-02-23 08:11:00,
2013-02-23 03:16:00,43.7,40.4,29.94,NE,37,0.0,3.0,88,0.00,,,0.00,0,Wunderground v.1.15,2013-02-23 08:16:00,
2013-02-23 03:22:00,43.6,40.6,29.93,NE,37,0.0,0.0,89,0.00,,,0.00,0,Wunderground v.1.15,2013-02-23 08:22:00,
2013-02-23 03:27:00,43.6,40.3,29.93,NE,37,0.0,0.0,88,0.00,,,0.00,0,Wunderground v.1.15,2013-02-23 08:27:00,
2013-02-23 03:32:00,43.6,40.6,29.93,NE,37,0.0,0.0,89,0.00,,,0.00,0,Wunderground v.1.15,2013-02-23 08:32:00,
2013-02-23 03:37:00,43.7,40.7,29.94,NE,37,0.0,0.0,89,0.00,,,0.00,0,Wunderground v.1.15,2013-02-23 08:37:00,
2013-02-23 03:42:00,43.7,40.4,29.93,NE,37,0.0,0.0,88,0.00,,,0.00,0,Wunderground v.1.15,2013-02-23 08:42:00,
2013-02-23 03:48:00,43.7,40.7,29.93,NE,37,0.0,0.0,89,0.00,,,0.00,0,Wunderground v.1.15,2013-02-23 08:48:00,
2013-02-23 03:53:00,43.6,40.6,29.93,NE,37,0.0,0.0,89,0.00,,,0.00,0,Wunderground v.1.15,2013-02-23 08:53:00,
2013-02-23 03:58:00,43.5,40.5,29.93,NE,37,0.0,0.0,89,0.00,,,0.00,0,Wunderground v.1.15,2013-02-23 08:58:00,
2013-02-23 04:04:00,43.5,40.5,29.93,NE,37,0.0,0.0,89,0.00,,,0.00,0,Wunderground v.1.15,2013-02-23 09:04:00,
2013-02-23 04:09:00,43.5,40.5,29.93,NE,37,0.0,0.0,89,0.00,,,0.00,0,Wunderground v.1.15,2013-02-23 09:09:00,
2013-02-23 04:14:00,43.5,40.5,29.93,NE,37,0.0,0.0,89,0.00,,,0.00,0,Wunderground v.1.15,2013-02-23 09:14:00,
2013-02-23 04:20:00,43.5,40.5,29.93,NE,38,0.0,0.0,89,0.00,,,0.00,0,Wunderground v.1.15,2013-02-23 09:20:00,
2013-02-23 04:25:00,43.5,40.5,29.93,NE,37,0.0,0.0,89,0.00,,,0.00,0,Wunderground v.1.15,2013-02-23 09:25:00,
2013-02-23 04:30:00,43.5,40.5,29.93,NE,37,0.0,0.0,89,0.00,,,0.00,0,Wunderground v.1.15,2013-02-23 09:30:00,
2013-02-23 04:35:00,43.5,40.5,29.93,NE,37,0.0,0.0,89,0.00,,,0.00,0,Wunderground v.1.15,2013-02-23 09:35:00,
2013-02-23 04:40:00,43.4,40.4,29.93,NE,37,0.0,0.0,89,0.00,,,0.00,0,Wunderground v.1.15,2013-02-23 09:40:00,
2013-02-23 04:45:00,43.1,40.4,29.93,NE,37,0.0,0.0,90,0.00,,,0.00,0,Wunderground v.1.15,2013-02-23 09:45:00,
2013-02-23 04:50:00,43.1,40.4,29.93,NE,38,0.0,0.0,90,0.00,,,0.00,0,Wunderground v.1.15,2013-02-23 09:50:00,
2013-02-23 04:55:00,43.1,40.4,29.93,NE,37,0.0,0.0,90,0.00,,,0.00,0,Wunderground v.1.15,2013-02-23 09:55:00,
2013-02-23 05:01:00,43.1,40.4,29.93,NE,37,0.0,0.0,90,0.00,,,0.00,0,Wunderground v.1.15,2013-02-23 10:01:00,
2013-02-23 05:06:00,43.1,40.4,29.93,NE,37,0.0,0.0,90,0.00,,,0.00,0,Wunderground v.1.15,2013-02-23 10:06:00,
2013-02-23 05:11:00,43.1,40.4,29.93,NE,37,0.0,0.0,90,0.00,,,0.00,0,Wunderground v.1.15,2013-02-23 10:11:00,
2013-02-23 05:16:00,43.1,40.4,29.93,NE,37,0.0,0.0,90,0.00,,,0.00,0,Wunderground v.1.15,2013-02-23 10:16:00,
2013-02-23 05:21:00,43.1,40.4,29.93,NE,37,0.0,0.0,90,0.00,,,0.00,0,Wunderground v.1.15,2013-02-23 10:21:00,
2013-02-23 05:26:00,43.2,40.5,29.93,NE,37,0.0,0.0,90,0.00,,,0.00,0,Wunderground v.1.15,2013-02-23 10:26:00,
2013-02-23 05:31:00,43.2,40.5,29.93,NE,37,0.0,0.0,90,0.00,,,0.00,0,Wunderground v.1.15,2013-02-23 10:31:00,
2013-02-23 05:36:00,43.2,40.5,29.93,NE,38,0.0,0.0,90,0.00,,,0.00,0,Wunderground v.1.15,2013-02-23 10:36:00,
2013-02-23 05:41:00,43.3,40.6,29.93,NE,37,0.0,0.0,90,0.00,,,0.00,0,Wunderground v.1.15,2013-02-23 10:41:00,
2013-02-23 05:46:00,43.2,40.5,29.93,NE,37,0.0,1.0,90,0.00,,,0.00,0,Wunderground v.1.15,2013-02-23 10:46:00,
2013-02-23 05:51:00,43.1,40.4,29.93,NE,37,0.0,0.0,90,0.00,,,0.00,0,Wunderground v.1.15,2013-02-23 10:51:00,
2013-02-23 05:56:00,43.1,40.4,29.93,NE,37,0.0,0.0,90,0.00,,,0.00,0,Wunderground v.1.15,2013-02-23 10:56:00,
2013-02-23 06:01:00,43.1,40.4,29.93,NE,37,0.0,0.0,90,0.00,,,0.00,0,Wunderground v.1.15,2013-02-23 11:01:00,
2013-02-23 06:06:00,43.2,40.5,29.93,NE,37,0.0,0.0,90,0.00,,,0.00,0,Wunderground v.1.15,2013-02-23 11:06:00,
2013-02-23 06:11:00,43.2,40.5,29.93,NE,37,0.0,1.0,90,0.00,,,0.00,0,Wunderground v.1.15,2013-02-23 11:11:00,
2013-02-23 06:16:00,43.2,40.2,29.93,NE,37,0.0,1.0,89,0.00,,,0.00,0,Wunderground v.1.15,2013-02-23 11:16:00,
2013-02-23 06:21:00,43.3,40.3,29.93,NE,37,0.0,0.0,89,0.00,,,0.00,0,Wunderground v.1.15,2013-02-23 11:21:00,
2013-02-23 06:26:00,43.3,40.3,29.93,NE,37,0.0,0.0,89,0.00,,,0.00,0,Wunderground v.1.15,2013-02-23 11:26:00,
2013-02-23 06:32:00,43.3,40.3,29.92,NE,38,0.0,0.0,89,0.00,,,0.00,0,Wunderground v.1.15,2013-02-23 11:32:00,
2013-02-23 06:37:00,43.2,40.2,29.92,NE,37,0.0,2.0,89,0.00,,,0.00,0,Wunderground v.1.15,2013-02-23 11:37:00,
2013-02-23 06:42:00,43.2,40.2,29.93,NE,37,0.0,0.0,89,0.00,,,0.00,0,Wunderground v.1.15,2013-02-23 11:42:00,
2013-02-23 06:47:00,43.0,40.3,29.93,NE,37,0.0,0.0,90,0.00,,,0.00,0,Wunderground v.1.15,2013-02-23 11:47:00,
2013-02-23 06:52:00,43.0,40.3,29.93,NE,37,0.0,0.0,90,0.00,,,0.00,0,Wunderground v.1.15,2013-02-23 11:52:00,
2013-02-23 06:57:00,42.9,40.2,29.93,NE,37,0.0,0.0,90,0.00,,,0.00,0,Wunderground v.1.15,2013-02-23 11:57:00,
2013-02-23 07:02:00,43.0,40.3,29.93,NE,37,1.0,2.0,90,0.00,,,0.00,0,Wunderground v.1.15,2013-02-23 12:02:00,
2013-02-23 07:07:00,43.0,40.3,29.93,NE,37,0.0,2.0,90,0.00,,,0.00,0,Wunderground v.1.15,2013-02-23 12:07:00,
2013-02-23 07:12:00,43.0,40.3,29.94,NE,37,0.0,1.0,90,0.00,,,0.00,0,Wunderground v.1.15,2013-02-23 12:12:00,
2013-02-23 07:18:00,43.0,40.6,29.93,NE,37,0.0,1.0,91,0.00,,,0.00,0,Wunderground v.1.15,2013-02-23 12:18:00,
2013-02-23 07:23:00,43.0,40.3,29.93,NE,37,2.0,2.0,90,0.00,,,0.00,0,Wunderground v.1.15,2013-02-23 12:23:00,
2013-02-23 07:28:00,43.0,40.3,29.93,NE,37,0.0,2.0,90,0.00,,,0.00,0,Wunderground v.1.15,2013-02-23 12:28:00,
2013-02-23 07:33:00,43.0,40.6,29.93,NE,37,0.0,0.0,91,0.00,,,0.00,0,Wunderground v.1.15,2013-02-23 12:33:00,
2013-02-23 07:38:00,42.9,40.2,29.93,NE,37,0.0,0.0,90,0.00,,,0.00,0,Wunderground v.1.15,2013-02-23 12:38:00,
2013-02-23 07:43:00,43.0,40.6,29.93,NE,37,0.0,1.0,91,0.00,,,0.00,0,Wunderground v.1.15,2013-02-23 12:43:00,
2013-02-23 07:48:00,43.0,40.6,29.93,NE,37,0.0,1.0,91,0.00,,,0.00,0,Wunderground v.1.15,2013-02-23 12:48:00,
2013-02-23 07:53:00,43.0,40.6,29.93,NE,37,0.0,2.0,91,0.00,,,0.00,0,Wunderground v.1.15,2013-02-23 12:53:00,
2013-02-23 07:58:00,43.0,40.6,29.93,NE,37,0.0,2.0,91,0.00,,,0.00,0,Wunderground v.1.15,2013-02-23 12:58:00,
2013-02-23 08:03:00,43.1,40.7,29.93,NE,37,0.0,0.0,91,0.00,,,0.00,0,Wunderground v.1.15,2013-02-23 13:03:00,
2013-02-23 08:08:00,43.2,40.5,29.93,NE,37,0.0,0.0,90,0.00,,,0.00,0,Wunderground v.1.15,2013-02-23 13:08:00,
2013-02-23 08:13:00,43.4,40.7,29.94,NE,37,0.0,0.0,90,0.00,,,0.00,0,Wunderground v.1.15,2013-02-23 13:13:00,
2013-02-23 08:18:00,43.6,40.9,29.94,NE,37,0.0,0.0,90,0.00,,,0.00,0,Wunderground v.1.15,2013-02-23 13:18:00,
2013-02-23 08:23:00,43.8,41.1,29.94,NE,37,0.0,0.0,90,0.00,,,0.00,0,Wunderground v.1.15,2013-02-23 13:23:00,
2013-02-23 08:28:00,44.1,41.1,29.94,NE,37,0.0,1.0,89,0.00,,,0.00,0,Wunderground v.1.15,2013-02-23 13:28:00,
2013-02-23 08:34:00,44.3,41.0,29.94,NE,37,0.0,0.0,88,0.00,,,0.00,0,Wunderground v.1.15,2013-02-23 13:34:00,
2013-02-23 08:39:00,44.4,41.1,29.94,NE,37,0.0,2.0,88,0.00,,,0.00,0,Wunderground v.1.15,2013-02-23 13:39:00,
2013-02-23 08:44:00,44.5,41.2,29.94,NE,37,2.0,2.0,88,0.00,,,0.00,0,Wunderground v.1.15,2013-02-23 13:44:00,
2013-02-23 08:49:00,44.4,41.1,29.95,NE,37,0.0,0.0,88,0.00,,,0.00,0,Wunderground v.1.15,2013-02-23 13:49:00,
2013-02-23 08:54:00,44.7,41.4,29.95,NE,37,1.0,2.0,88,0.00,,,0.00,0,Wunderground v.1.15,2013-02-23 13:54:00,
2013-02-23 08:59:00,44.9,41.3,29.95,NE,37,1.0,1.0,87,0.00,,,0.00,0,Wunderground v.1.15,2013-02-23 13:59:00,
2013-02-23 09:05:00,45.2,41.3,29.95,NNW,331,0.0,3.0,86,0.00,,,0.00,0,Wunderground v.1.15,2013-02-23 14:05:00,
2013-02-23 09:11:00,45.3,41.1,29.94,NW,323,0.0,4.0,85,0.00,,,0.00,0,Wunderground v.1.15,2013-02-23 14:11:00,
2013-02-23 09:16:00,45.4,40.5,29.95,WNW,295,3.0,5.0,83,0.00,,,0.00,0,Wunderground v.1.15,2013-02-23 14:16:00,
2013-02-23 09:21:00,45.4,40.5,29.95,WNW,294,4.0,4.0,83,0.00,,,0.00,0,Wunderground v.1.15,2013-02-23 14:21:00,
2013-02-23 09:26:00,45.3,40.4,29.94,WNW,303,3.0,6.0,83,0.00,,,0.00,0,Wunderground v.1.15,2013-02-23 14:26:00,
2013-02-23 09:31:00,45.4,40.2,29.94,WNW,292,2.0,4.0,82,0.00,,,0.00,0,Wunderground v.1.15,2013-02-23 14:31:00,
2013-02-23 09:36:00,45.2,40.0,29.94,WNW,301,2.0,4.0,82,0.00,,,0.00,0,Wunderground v.1.15,2013-02-23 14:36:00,
2013-02-23 09:41:00,44.9,39.7,29.95,WNW,291,1.0,7.0,82,0.00,,,0.00,0,Wunderground v.1.15,2013-02-23 14:41:00,
2013-02-23 09:46:00,44.7,39.5,29.95,NW,304,2.0,7.0,82,0.00,,,0.00,0,Wunderground v.1.15,2013-02-23 14:46:00,
2013-02-23 09:51:00,44.7,39.2,29.95,NW,304,1.0,3.0,81,0.00,,,0.00,0,Wunderground v.1.15,2013-02-23 14:51:00,
2013-02-23 09:56:00,44.8,39.3,29.95,WNW,292,4.0,4.0,81,0.00,,,0.00,0,Wunderground v.1.15,2013-02-23 14:56:00,
2013-02-23 10:01:00,45.0,39.5,29.95,WNW,291,4.0,4.0,81,0.00,,,0.00,0,Wunderground v.1.15,2013-02-23 15:01:00,
2013-02-23 10:06:00,45.1,39.6,29.94,WNW,293,1.0,4.0,81,0.00,,,0.00,0,Wunderground v.1.15,2013-02-23 15:06:00,
2013-02-23 10:11:00,45.4,39.3,29.94,WSW,255,0.0,4.0,79,0.00,,,0.00,0,Wunderground v.1.15,2013-02-23 15:11:00,
2013-02-23 10:16:00,45.5,38.7,29.95,WNW,282,3.0,6.0,77,0.00,,,0.00,0,Wunderground v.1.15,2013-02-23 15:16:00,
2013-02-23 10:21:00,46.0,38.9,29.95,West,277,1.0,3.0,76,0.00,,,0.00,0,Wunderground v.1.15,2013-02-23 15:21:00,
2013-02-23 10:26:00,46.3,39.1,29.95,WNW,283,3.0,6.0,76,0.00,,,0.00,0,Wunderground v.1.15,2013-02-23 15:26:00,
2013-02-23 10:31:00,46.5,39.0,29.95,WNW,282,3.0,5.0,75,0.00,,,0.00,0,Wunderground v.1.15,2013-02-23 15:31:00,
2013-02-23 10:36:00,46.5,39.0,29.95,WNW,295,3.0,5.0,75,0.00,,,0.00,0,Wunderground v.1.15,2013-02-23 15:36:00,
2013-02-23 10:42:00,46.7,39.5,29.94,NE,50,0.0,3.0,76,0.00,,,0.00,0,Wunderground v.1.15,2013-02-23 15:42:00,
2013-02-23 10:47:00,47.2,39.7,29.94,SSW,204,0.0,3.0,75,0.00,,,0.00,0,Wunderground v.1.15,2013-02-23 15:47:00,
2013-02-23 10:52:00,47.5,39.6,29.94,West,277,4.0,5.0,74,0.00,,,0.00,0,Wunderground v.1.15,2013-02-23 15:52:00,
2013-02-23 10:57:00,47.3,39.1,29.94,WNW,290,3.0,6.0,73,0.00,,,0.00,0,Wunderground v.1.15,2013-02-23 15:57:00,
2013-02-23 11:02:00,47.1,38.9,29.94,WNW,282,4.0,5.0,73,0.00,,,0.00,0,Wunderground v.1.15,2013-02-23 16:02:00,
2013-02-23 11:07:00,47.0,39.1,29.95,WNW,292,1.0,5.0,74,0.00,,,0.00,0,Wunderground v.1.15,2013-02-23 16:07:00,
2013-02-23 11:12:00,47.0,39.5,29.94,WNW,296,3.0,4.0,75,0.00,,,0.00,0,Wunderground v.1.15,2013-02-23 16:12:00,
2013-02-23 11:17:00,47.0,38.8,29.94,WNW,288,3.0,5.0,73,0.00,,,0.00,0,Wunderground v.1.15,2013-02-23 16:17:00,
2013-02-23 11:22:00,47.2,39.0,29.94,WNW,288,1.0,5.0,73,0.00,,,0.00,0,Wunderground v.1.15,2013-02-23 16:22:00,
2013-02-23 11:27:00,47.3,39.1,29.94,WNW,290,4.0,6.0,73,0.00,,,0.00,0,Wunderground v.1.15,2013-02-23 16:27:00,
2013-02-23 11:32:00,47.6,39.7,29.94,WNW,287,4.0,4.0,74,0.00,,,0.00,0,Wunderground v.1.15,2013-02-23 16:32:00,
2013-02-23 11:37:00,47.8,39.6,29.94,WNW,287,3.0,4.0,73,0.00,,,0.00,0,Wunderground v.1.15,2013-02-23 16:37:00,
2013-02-23 11:42:00,47.8,38.8,29.94,WNW,287,4.0,5.0,71,0.00,,,0.00,0,Wunderground v.1.15,2013-02-23 16:42:00,
2013-02-23 11:47:00,48.2,39.6,29.94,West,278,3.0,5.0,72,0.00,,,0.00,0,Wunderground v.1.15,2013-02-23 16:47:00,
2013-02-23 11:52:00,48.2,38.9,29.94,WNW,293,2.0,4.0,70,0.00,,,0.00,0,Wunderground v.1.15,2013-02-23 16:52:00,
2013-02-23 11:57:00,47.6,38.7,29.93,WNW,296,2.0,5.0,71,0.00,,,0.00,0,Wunderground v.1.15,2013-02-23 16:57:00,
2013-02-23 12:02:00,47.7,39.5,29.93,WNW,291,4.0,5.0,73,0.00,,,0.00,0,Wunderground v.1.15,2013-02-23 17:02:00,
2013-02-23 12:07:00,47.9,39.3,29.93,WNW,292,4.0,7.0,72,0.00,,,0.00,0,Wunderground v.1.15,2013-02-23 17:07:00,
2013-02-23 12:12:00,47.8,38.5,29.92,WNW,290,6.0,7.0,70,0.00,,,0.00,0,Wunderground v.1.15,2013-02-23 17:12:00,
2013-02-23 12:17:00,47.7,38.8,29.92,WNW,283,3.0,7.0,71,0.00,,,0.00,0,Wunderground v.1.15,2013-02-23 17:17:00,
2013-02-23 12:22:00,47.7,38.4,29.92,WNW,290,5.0,7.0,70,0.00,,,0.00,0,Wunderground v.1.15,2013-02-23 17:22:00,
2013-02-23 12:27:00,47.8,38.8,29.92,West,274,2.0,7.0,71,0.00,,,0.00,0,Wunderground v.1.15,2013-02-23 17:27:00,
2013-02-23 12:32:00,47.4,38.5,29.91,WNW,293,5.0,7.0,71,0.00,,,0.00,0,Wunderground v.1.15,2013-02-23 17:32:00,
2013-02-23 12:37:00,47.4,38.1,29.91,WNW,289,6.0,9.0,70,0.00,,,0.00,0,Wunderground v.1.15,2013-02-23 17:37:00,
2013-02-23 12:42:00,47.2,37.5,29.91,WNW,290,5.0,6.0,69,0.00,,,0.00,0,Wunderground v.1.15,2013-02-23 17:42:00,
2013-02-23 12:47:00,47.4,37.4,29.91,WNW,283,6.0,7.0,68,0.00,,,0.00,0,Wunderground v.1.15,2013-02-23 17:47:00,
2013-02-23 12:52:00,47.7,37.3,29.91,WNW,286,4.0,6.0,67,0.00,,,0.00,0,Wunderground v.1.15,2013-02-23 17:52:00,
2013-02-23 12:57:00,47.8,37.7,29.91,WNW,288,4.0,7.0,68,0.00,,,0.00,0,Wunderground v.1.15,2013-02-23 17:57:00,
2013-02-23 13:02:00,48.7,38.6,29.91,West,274,1.0,7.0,68,0.00,,,0.00,0,Wunderground v.1.15,2013-02-23 18:02:00,
2013-02-23 13:07:00,49.4,38.1,29.90,WNW,292,10.0,10.0,65,0.00,,,0.00,0,Wunderground v.1.15,2013-02-23 18:07:00,
2013-02-23 13:12:00,49.6,37.5,29.90,WNW,291,6.0,11.0,63,0.00,,,0.00,0,Wunderground v.1.15,2013-02-23 18:12:00,
2013-02-23 13:18:00,50.1,37.2,29.90,WNW,283,4.0,11.0,61,0.00,,,0.00,0,Wunderground v.1.15,2013-02-23 18:18:00,
2013-02-23 13:23:00,50.3,37.4,29.90,WNW,287,10.0,10.0,61,0.00,,,0.00,0,Wunderground v.1.15,2013-02-23 18:23:00,
2013-02-23 13:28:00,50.6,37.2,29.89,WNW,289,6.0,10.0,60,0.00,,,0.00,0,Wunderground v.1.15,2013-02-23 18:28:00,
2013-02-23 13:34:00,50.5,36.7,29.89,WNW,289,8.0,8.0,59,0.00,,,0.00,0,Wunderground v.1.15,2013-02-23 18:34:00,
2013-02-23 13:39:00,50.1,38.0,29.89,WNW,295,4.0,10.0,63,0.00,,,0.00,0,Wunderground v.1.15,2013-02-23 18:39:00,
2013-02-23 13:44:00,50.3,37.8,29.89,WNW,290,5.0,8.0,62,0.00,,,0.00,0,Wunderground v.1.15,2013-02-23 18:44:00,
2013-02-23 13:49:00,50.6,37.6,29.89,WNW,299,4.0,8.0,61,0.00,,,0.00,0,Wunderground v.1.15,2013-02-23 18:49:00,
2013-02-23 13:54:00,50.5,36.7,29.88,WNW,292,6.0,9.0,59,0.00,,,0.00,0,Wunderground v.1.15,2013-02-23 18:54:00,
2013-02-23 13:59:00,50.8,35.7,29.88,NW,306,3.0,9.0,56,0.00,,,0.00,0,Wunderground v.1.15,2013-02-23 18:59:00,
2013-02-23 14:04:00,50.8,35.7,29.88,WNW,291,1.0,10.0,56,0.00,,,0.00,0,Wunderground v.1.15,2013-02-23 19:04:00,
2013-02-23 14:09:00,50.9,36.6,29.88,WNW,288,5.0,10.0,58,0.00,,,0.00,0,Wunderground v.1.15,2013-02-23 19:09:00,
2013-02-23 14:14:00,50.8,36.5,29.88,WNW,290,6.0,8.0,58,0.00,,,0.00,0,Wunderground v.1.15,2013-02-23 19:14:00,
2013-02-23 14:19:00,51.1,35.5,29.88,WNW,288,5.0,6.0,55,0.00,,,0.00,0,Wunderground v.1.15,2013-02-23 19:19:00,
2013-02-23 14:24:00,51.3,36.1,29.88,WNW,297,1.0,6.0,56,0.00,,,0.00,0,Wunderground v.1.15,2013-02-23 19:24:00,
2013-02-23 14:29:00,51.5,36.3,29.88,WNW,291,6.0,6.0,56,0.00,,,0.00,0,Wunderground v.1.15,2013-02-23 19:29:00,
2013-02-23 14:34:00,51.6,35.9,29.88,WNW,283,6.0,7.0,55,0.00,,,0.00,0,Wunderground v.1.15,2013-02-23 19:34:00,
2013-02-23 14:39:00,51.7,35.6,29.88,WNW,288,4.0,4.0,54,0.00,,,0.00,0,Wunderground v.1.15,2013-02-23 19:39:00,
2013-02-23 14:44:00,52.0,36.3,29.87,WNW,291,5.0,5.0,55,0.00,,,0.00,0,Wunderground v.1.15,2013-02-23 19:44:00,
2013-02-23 14:49:00,51.8,36.1,29.87,WNW,297,2.0,3.0,55,0.00,,,0.00,0,Wunderground v.1.15,2013-02-23 19:49:00,
2013-02-23 14:54:00,52.1,35.0,29.87,WNW,297,3.0,9.0,52,0.00,,,0.00,0,Wunderground v.1.15,2013-02-23 19:54:00,
2013-02-23 14:59:00,52.1,35.0,29.86,WNW,289,5.0,6.0,52,0.00,,,0.00,0,Wunderground v.1.15,2013-02-23 19:59:00,
2013-02-23 15:04:00,52.3,34.7,29.87,WNW,293,4.0,9.0,51,0.00,,,0.00,0,Wunderground v.1.15,2013-02-23 20:04:00,
2013-02-23 15:09:00,52.1,34.5,29.87,WNW,282,6.0,7.0,51,0.00,,,0.00,0,Wunderground v.1.15,2013-02-23 20:09:00,
2013-02-23 15:14:00,51.8,34.2,29.87,WNW,291,3.0,9.0,51,0.00,,,0.00,0,Wunderground v.1.15,2013-02-23 20:14:00,
2013-02-23 15:20:00,51.4,33.9,29.87,WNW,292,4.0,4.0,51,0.00,,,0.00,0,Wunderground v.1.15,2013-02-23 20:20:00,
2013-02-23 15:25:00,51.3,33.3,29.87,West,268,1.0,7.0,50,0.00,,,0.00,0,Wunderground v.1.15,2013-02-23 20:25:00,
2013-02-23 15:30:00,51.2,33.2,29.87,WNW,286,2.0,4.0,50,0.00,,,0.00,0,Wunderground v.1.15,2013-02-23 20:30:00,
2013-02-23 15:35:00,51.3,34.3,29.87,WNW,289,5.0,5.0,52,0.00,,,0.00,0,Wunderground v.1.15,2013-02-23 20:35:00,
2013-02-23 15:40:00,51.5,34.4,29.87,WNW,292,3.0,4.0,52,0.00,,,0.00,0,Wunderground v.1.15,2013-02-23 20:40:00,
2013-02-23 15:45:00,51.8,34.2,29.86,WNW,284,3.0,7.0,51,0.00,,,0.00,0,Wunderground v.1.15,2013-02-23 20:45:00,
2013-02-23 15:50:00,51.9,33.8,29.86,WNW,291,3.0,3.0,50,0.00,,,0.00,0,Wunderground v.1.15,2013-02-23 20:50:00,
2013-02-23 15:55:00,51.8,34.2,29.86,WNW,288,4.0,4.0,51,0.00,,,0.00,0,Wunderground v.1.15,2013-02-23 20:55:00,
2013-02-23 16:00:00,51.8,34.7,29.87,WNW,290,4.0,4.0,52,0.00,,,0.00,0,Wunderground v.1.15,2013-02-23 21:00:00,
2013-02-23 16:05:00,51.9,33.8,29.87,WNW,292,4.0,5.0,50,0.00,,,0.00,0,Wunderground v.1.15,2013-02-23 21:05:00,
2013-02-23 16:10:00,51.8,34.2,29.86,West,280,2.0,3.0,51,0.00,,,0.00,0,Wunderground v.1.15,2013-02-23 21:10:00,
2013-02-23 16:15:00,52.0,33.4,29.87,WNW,291,3.0,6.0,49,0.00,,,0.00,0,Wunderground v.1.15,2013-02-23 21:15:00,
2013-02-23 16:20:00,52.1,34.0,29.87,West,273,3.0,4.0,50,0.00,,,0.00,0,Wunderground v.1.15,2013-02-23 21:20:00,
2013-02-23 16:25:00,52.0,33.9,29.87,WNW,289,5.0,5.0,50,0.00,,,0.00,0,Wunderground v.1.15,2013-02-23 21:25:00,
2013-02-23 16:30:00,51.9,33.3,29.86,WNW,290,5.0,6.0,49,0.00,,,0.00,0,Wunderground v.1.15,2013-02-23 21:30:00,
2013-02-23 16:44:00,51.5,34.4,29.86,WNW,288,2.0,2.0,52,0.00,,,0.00,0,Wunderground v.1.15,2013-02-23 21:44:00,
2013-02-23 16:49:00,51.5,34.4,29.86,WNW,293,3.0,5.0,52,0.00,,,0.00,0,Wunderground v.1.15,2013-02-23 21:49:00,
2013-02-23 16:54:00,51.4,34.3,29.86,West,261,3.0,3.0,52,0.00,,,0.00,0,Wunderground v.1.15,2013-02-23 21:54:00,
2013-02-23 16:59:00,51.3,33.8,29.86,WNW,286,4.0,6.0,51,0.00,,,0.00,0,Wunderground v.1.15,2013-02-23 21:59:00,
2013-02-23 17:05:00,51.0,33.5,29.86,WNW,288,5.0,7.0,51,0.00,,,0.00,0,Wunderground v.1.15,2013-02-23 22:05:00,
2013-02-23 17:10:00,50.8,32.8,29.86,WNW,291,3.0,4.0,50,0.00,,,0.00,0,Wunderground v.1.15,2013-02-23 22:10:00,
2013-02-23 17:15:00,50.7,33.7,29.86,WNW,285,1.0,5.0,52,0.00,,,0.00,0,Wunderground v.1.15,2013-02-23 22:15:00,
2013-02-23 17:20:00,50.6,33.6,29.86,WNW,295,2.0,2.0,52,0.00,,,0.00,0,Wunderground v.1.15,2013-02-23 22:20:00,
2013-02-23 17:25:00,50.5,33.5,29.86,WNW,291,3.0,5.0,52,0.00,,,0.00,0,Wunderground v.1.15,2013-02-23 22:25:00,
2013-02-23 17:31:00,50.3,34.3,29.86,West,274,1.0,3.0,54,0.00,,,0.00,0,Wunderground v.1.15,2013-02-23 22:31:00,
2013-02-23 17:36:00,50.2,33.2,29.86,WNW,287,4.0,6.0,52,0.00,,,0.00,0,Wunderground v.1.15,2013-02-23 22:36:00,
2013-02-23 17:41:00,50.0,34.0,29.86,WNW,298,3.0,4.0,54,0.00,,,0.00,0,Wunderground v.1.15,2013-02-23 22:41:00,
2013-02-23 17:46:00,49.8,33.8,29.86,WNW,289,2.0,5.0,54,0.00,,,0.00,0,Wunderground v.1.15,2013-02-23 22:46:00,
2013-02-23 17:51:00,49.5,33.5,29.86,WNW,288,2.0,5.0,54,0.00,,,0.00,0,Wunderground v.1.15,2013-02-23 22:51:00,
2013-02-23 17:56:00,49.3,33.8,29.86,WNW,289,2.0,5.0,55,0.00,,,0.00,0,Wunderground v.1.15,2013-02-23 22:56:00,
2013-02-23 18:01:00,49.2,33.7,29.86,WNW,284,3.0,5.0,55,0.00,,,0.00,0,Wunderground v.1.15,2013-02-23 23:01:00,
2013-02-23 18:06:00,48.9,33.9,29.86,WNW,284,0.0,5.0,56,0.00,,,0.00,0,Wunderground v.1.15,2013-02-23 23:06:00,
2013-02-23 18:11:00,48.4,33.9,29.86,WNW,284,0.0,0.0,57,0.00,,,0.00,0,Wunderground v.1.15,2013-02-23 23:11:00,
2013-02-23 18:16:00,48.0,33.9,29.86,WNW,284,3.0,3.0,58,0.00,,,0.00,0,Wunderground v.1.15,2013-02-23 23:16:00,
2013-02-23 18:21:00,47.5,33.4,29.86,WNW,294,1.0,3.0,58,0.00,,,0.00,0,Wunderground v.1.15,2013-02-23 23:21:00,
2013-02-23 18:26:00,47.3,32.8,29.86,WNW,294,1.0,3.0,57,0.00,,,0.00,0,Wunderground v.1.15,2013-02-23 23:26:00,
2013-02-23 18:31:00,46.9,32.9,29.86,WNW,294,0.0,2.0,58,0.00,,,0.00,0,Wunderground v.1.15,2013-02-23 23:31:00,
2013-02-23 18:36:00,46.5,32.5,29.86,WNW,294,0.0,2.0,58,0.00,,,0.00,0,Wunderground v.1.15,2013-02-23 23:36:00,
2013-02-23 18:41:00,46.0,32.5,29.86,WNW,294,0.0,0.0,59,0.00,,,0.00,0,Wunderground v.1.15,2013-02-23 23:41:00,
2013-02-23 18:46:00,45.6,32.1,29.86,WNW,294,0.0,1.0,59,0.00,,,0.00,0,Wunderground v.1.15,2013-02-23 23:46:00,
2013-02-23 18:51:00,45.3,32.2,29.86,WNW,294,0.0,0.0,60,0.00,,,0.00,0,Wunderground v.1.15,2013-02-23 23:51:00,
2013-02-23 18:56:00,44.8,31.8,29.86,WNW,294,0.0,0.0,60,0.00,,,0.00,0,Wunderground v.1.15,2013-02-23 23:56:00,
2013-02-23 19:01:00,44.5,31.5,29.86,WNW,294,0.0,0.0,60,0.00,,,0.00,0,Wunderground v.1.15,2013-02-24 00:01:00,
2013-02-23 19:06:00,44.2,31.2,29.86,WNW,294,0.0,0.0,60,0.00,,,0.00,0,Wunderground v.1.15,2013-02-24 00:06:00,
2013-02-23 19:11:00,43.9,30.9,29.86,WNW,294,0.0,0.0,60,0.00,,,0.00,0,Wunderground v.1.15,2013-02-24 00:11:00,
2013-02-23 19:17:00,43.7,31.1,29.86,WNW,294,0.0,1.0,61,0.00,,,0.00,0,Wunderground v.1.15,2013-02-24 00:17:00,
2013-02-23 19:22:00,43.5,30.9,29.86,WNW,293,0.0,0.0,61,0.00,,,0.00,0,Wunderground v.1.15,2013-02-24 00:22:00,
2013-02-23 19:27:00,43.3,31.5,29.86,WNW,294,0.0,0.0,63,0.00,,,0.00,0,Wunderground v.1.15,2013-02-24 00:27:00,
2013-02-23 19:32:00,43.1,31.0,29.86,WNW,294,0.0,0.0,62,0.00,,,0.00,0,Wunderground v.1.15,2013-02-24 00:32:00,
2013-02-23 19:37:00,42.8,31.1,29.86,WNW,294,0.0,0.0,63,0.00,,,0.00,0,Wunderground v.1.15,2013-02-24 00:37:00,
2013-02-23 19:42:00,42.5,30.8,29.86,WNW,294,0.0,0.0,63,0.00,,,0.00,0,Wunderground v.1.15,2013-02-24 00:42:00,
2013-02-23 19:47:00,42.2,30.9,29.86,WNW,294,0.0,0.0,64,0.00,,,0.00,0,Wunderground v.1.15,2013-02-24 00:47:00,
2013-02-23 19:52:00,42.0,32.2,29.86,WNW,294,0.0,0.0,68,0.00,,,0.00,0,Wunderground v.1.15,2013-02-24 00:52:00,
2013-02-23 19:57:00,41.7,31.9,29.86,WNW,294,0.0,0.0,68,0.00,,,0.00,0,Wunderground v.1.15,2013-02-24 00:57:00,
2013-02-23 20:02:00,41.3,31.9,29.86,WNW,293,0.0,1.0,69,0.00,,,0.00,0,Wunderground v.1.15,2013-02-24 01:02:00,
2013-02-23 20:07:00,41.1,32.1,29.87,WNW,294,0.0,1.0,70,0.00,,,0.00,0,Wunderground v.1.15,2013-02-24 01:07:00,
2013-02-23 20:12:00,40.8,32.1,29.87,WNW,294,0.0,1.0,71,0.00,,,0.00,0,Wunderground v.1.15,2013-02-24 01:12:00,
2013-02-23 20:18:00,40.6,31.6,29.87,WNW,293,0.0,1.0,70,0.00,,,0.00,0,Wunderground v.1.15,2013-02-24 01:18:00,
2013-02-23 20:23:00,40.3,31.6,29.87,WNW,294,1.0,2.0,71,0.00,,,0.00,0,Wunderground v.1.15,2013-02-24 01:23:00,
2013-02-23 20:28:00,39.9,31.6,29.87,WNW,294,0.0,2.0,72,0.00,,,0.00,0,Wunderground v.1.15,2013-02-24 01:28:00,
2013-02-23 20:33:00,39.6,31.3,29.87,WNW,293,0.0,0.0,72,0.00,,,0.00,0,Wunderground v.1.15,2013-02-24 01:33:00,
2013-02-23 20:38:00,39.4,31.1,29.87,WNW,294,0.0,1.0,72,0.00,,,0.00,0,Wunderground v.1.15,2013-02-24 01:38:00,
2013-02-23 20:43:00,39.1,31.2,29.87,WNW,293,1.0,1.0,73,0.00,,,0.00,0,Wunderground v.1.15,2013-02-24 01:43:00,
2013-02-23 20:48:00,38.9,31.0,29.88,WNW,294,0.0,1.0,73,0.00,,,0.00,0,Wunderground v.1.15,2013-02-24 01:48:00,
2013-02-23 20:53:00,38.7,30.8,29.87,WNW,294,0.0,1.0,73,0.00,,,0.00,0,Wunderground v.1.15,2013-02-24 01:53:00,
2013-02-23 20:58:00,38.4,30.8,29.87,WNW,293,0.0,1.0,74,0.00,,,0.00,0,Wunderground v.1.15,2013-02-24 01:58:00,
2013-02-23 21:03:00,38.2,30.6,29.87,WNW,294,0.0,0.0,74,0.00,,,0.00,0,Wunderground v.1.15,2013-02-24 02:03:00,
2013-02-23 21:08:00,38.1,30.9,29.87,WNW,294,1.0,1.0,75,0.00,,,0.00,0,Wunderground v.1.15,2013-02-24 02:08:00,
2013-02-23 21:13:00,37.8,30.6,29.88,WNW,293,0.0,1.0,75,0.00,,,0.00,0,Wunderground v.1.15,2013-02-24 02:13:00,
2013-02-23 21:18:00,37.6,30.4,29.88,WNW,294,0.0,1.0,75,0.00,,,0.00,0,Wunderground v.1.15,2013-02-24 02:18:00,
2013-02-23 21:23:00,37.4,30.2,29.87,WNW,293,0.0,0.0,75,0.00,,,0.00,0,Wunderground v.1.15,2013-02-24 02:23:00,
2013-02-23 21:28:00,37.2,30.0,29.88,WNW,294,0.0,0.0,75,0.00,,,0.00,0,Wunderground v.1.15,2013-02-24 02:28:00,
2013-02-23 21:33:00,37.0,30.5,29.88,WNW,293,0.0,0.0,77,0.00,,,0.00,0,Wunderground v.1.15,2013-02-24 02:33:00,
2013-02-23 21:38:00,36.8,30.3,29.88,WNW,294,0.0,0.0,77,0.00,,,0.00,0,Wunderground v.1.15,2013-02-24 02:38:00,
2013-02-23 21:43:00,36.6,30.1,29.88,WNW,293,0.0,0.0,77,0.00,,,0.00,0,Wunderground v.1.15,2013-02-24 02:43:00,
2013-02-23 21:48:00,36.4,30.2,29.88,WNW,293,0.0,0.0,78,0.00,,,0.00,0,Wunderground v.1.15,2013-02-24 02:48:00,
2013-02-23 21:53:00,36.2,30.0,29.88,WNW,294,0.0,0.0,78,0.00,,,0.00,0,Wunderground v.1.15,2013-02-24 02:53:00,
2013-02-23 21:58:00,36.0,29.8,29.88,WNW,294,0.0,0.0,78,0.00,,,0.00,0,Wunderground v.1.15,2013-02-24 02:58:00,
2013-02-23 22:03:00,35.9,30.0,29.87,WNW,293,0.0,0.0,79,0.00,,,0.00,0,Wunderground v.1.15,2013-02-24 03:03:00,
2013-02-23 22:09:00,35.7,29.5,29.87,WNW,293,0.0,0.0,78,0.00,,,0.00,0,Wunderground v.1.15,2013-02-24 03:09:00,
2013-02-23 22:14:00,35.5,29.6,29.87,WNW,293,0.0,1.0,79,0.00,,,0.00,0,Wunderground v.1.15,2013-02-24 03:14:00,
2013-02-23 22:19:00,35.3,29.4,29.88,WNW,293,0.0,0.0,79,0.00,,,0.00,0,Wunderground v.1.15,2013-02-24 03:19:00,
2013-02-23 22:24:00,35.1,29.2,29.88,WNW,293,0.0,0.0,79,0.00,,,0.00,0,Wunderground v.1.15,2013-02-24 03:24:00,
2013-02-23 22:31:00,35.0,29.5,29.88,WNW,293,0.0,0.0,80,0.00,,,0.00,0,Wunderground v.1.15,2013-02-24 03:31:00,
2013-02-23 22:36:00,34.9,29.4,29.89,WNW,293,0.0,0.0,80,0.00,,,0.00,0,Wunderground v.1.15,2013-02-24 03:36:00,
2013-02-23 22:41:00,34.9,29.7,29.89,WNW,293,0.0,2.0,81,0.00,,,0.00,0,Wunderground v.1.15,2013-02-24 03:41:00,
2013-02-23 22:46:00,34.9,29.7,29.90,WNW,293,0.0,2.0,81,0.00,,,0.00,0,Wunderground v.1.15,2013-02-24 03:46:00,
2013-02-23 22:51:00,35.1,30.5,29.90,East,89,2.0,3.0,83,0.00,,,0.00,0,Wunderground v.1.15,2013-02-24 03:51:00,
2013-02-23 22:56:00,35.3,30.7,29.90,East,89,0.0,3.0,83,0.00,,,0.00,0,Wunderground v.1.15,2013-02-24 03:56:00,
2013-02-23 23:01:00,35.4,30.8,29.90,East,89,1.0,2.0,83,0.00,,,0.00,0,Wunderground v.1.15,2013-02-24 04:01:00,
2013-02-23 23:06:00,35.5,30.8,29.91,East,89,1.0,2.0,83,0.00,,,0.00,0,Wunderground v.1.15,2013-02-24 04:06:00,
2013-02-23 23:11:00,35.6,30.9,29.91,SE,126,3.0,3.0,83,0.00,,,0.00,0,Wunderground v.1.15,2013-02-24 04:11:00,
2013-02-23 23:16:00,35.7,30.7,29.91,South,184,0.0,3.0,82,0.00,,,0.00,0,Wunderground v.1.15,2013-02-24 04:16:00,
2013-02-23 23:21:00,35.7,31.0,29.91,South,184,0.0,1.0,83,0.00,,,0.00,0,Wunderground v.1.15,2013-02-24 04:21:00,
2013-02-23 23:26:00,35.7,30.7,29.90,South,184,0.0,2.0,82,0.00,,,0.00,0,Wunderground v.1.15,2013-02-24 04:26:00,
2013-02-23 23:31:00,35.7,30.7,29.90,South,184,0.0,2.0,82,0.00,,,0.00,0,Wunderground v.1.15,2013-02-24 04:31:00,
2013-02-23 23:36:00,35.5,30.2,29.90,South,184,0.0,2.0,81,0.00,,,0.00,0,Wunderground v.1.15,2013-02-24 04:36:00,
2013-02-23 23:41:00,35.6,30.3,29.90,ESE,116,0.0,2.0,81,0.00,,,0.00,0,Wunderground v.1.15,2013-02-24 04:41:00,
2013-02-23 23:46:00,35.6,30.0,29.90,ESE,116,0.0,2.0,80,0.00,,,0.00,0,Wunderground v.1.15,2013-02-24 04:46:00,
2013-02-23 23:51:00,35.6,29.7,29.90,ESE,117,0.0,1.0,79,0.00,,,0.00,0,Wunderground v.1.15,2013-02-24 04:51:00,
2013-02-23 23:56:00,35.4,29.8,29.91,ESE,116,1.0,1.0,80,0.00,,,0.00,0,Wunderground v.1.15,2013-02-24 04:56:00,